Location: Waco, TX
(31.5480°N, 97.1670°W)
Time: 21:46:26
(UTC-06:00)

ISS - Pass Details

Date: 14 February 2019
Orbit: 403 x 411 km, 51.6° (Epoch: 22 February)

Event Time Altitude Azimuth Distance (km) Brightness Sun altitude
Rises 10:06:23 0° 247° (WSW) 2,305 -0.2 31.8°
Reaches altitude 10° 10:08:38 10° 259° (W) 1,449 -1.2 32.1°
Maximum altitude 10:11:29 28° 321° (NW) 793 -2.6 32.6°
Drops below altitude 10° 10:14:21 10° 22° (NNE) 1,457 -1.1 33.0°
Sets 10:16:37 0° 35° (NE) 2,320 -0.1 33.4°
